Terminal Aerodrome Forecast
Issued by NWS

Home | Current Version | Previous Version | Text Only | Print | Product List | Glossary On
Versions: 1 2 3 4 5 6 7 8 9 10 11 12 13 14 15 16
000
FTUS41 KBTV 231100
TAFSLK
TAF
KSLK 231120Z 2312/2412 23006KT P6SM FEW050 SCT100
     FM231400 23011G17KT P6SM VCSH BKN050 OVC080
      TEMPO 2314/2316 4SM -TSRA BKN040CB
     FM232000 31010KT P6SM SCT035 BKN050
     FM240300 35004KT P6SM SCT025 BKN050=

USA.gov is the U.S. government's official web portal to all federal, state and local government web resources and services.